Tracking 22440 objects as of 27-Feb-2021
HD Live streaming from Space Station
objects crossing your sky now

SL-3 DEB

Track SL-3 DEB now!
10-day predictions


NORAD ID: 15769
Int'l Code: 1981-043C
Perigee: 832.3 km
Apogee: 921.9 km
Inclination: 81.3 °
Period: 102.4 minutes
Semi major axis: 7248 km
RCS: 0.0074 m2 (small)
Launch date: May 14, 1981
Source: Commonwealth of Independent States (former USSR) (CIS)
Launch site: PLESETSK MISSILE AND SPACE COMPLEX (PKMTR)

Note: This is SATELLITE DEBRIS
aabbcc
Your satellite tracking list
Your tracking list is empty




NASA's NSSDC Master Catalog

Two Line Element Set (TLE):
1 15769U 81043C   21058.00089869  .00000078  00000-0  38779-4 0  9993
2 15769  81.2720 259.5531 0061815 344.9817  14.9514 14.06902678882473
Source of the keplerian elements: AFSPC